Regional Weather Roundup
Issued by NWS Midland/Odessa, TX

Skip options and go directly to product.
Home | Oldest Version | Previous Version | Current Version | All | Graphics & Text | Save Text | Print | Product List | Glossary On

Skip product version selection by date and time.   
496
ASUS44 KMAF 051610
RWRMAF
MIDLAND AREA WEATHER ROUNDUP
NATIONAL WEATHER SERVICE MIDLAND TX
1100 AM CDT SAT SEP 05 2015

...IN SOUTHWEST TEXAS AND SOUTHEAST NEW MEXICO...

CITY           SKY/WX    TMP DP  RH WIND       PRES   REMARKS
ALPINE         SUNNY     84  56  39 S10G16    30.18R
ANDREWS        FAIR      82  65  56 S9        30.08S
ARTESIA        SUNNY     81  59  47 S10       30.08S
BIG SPRING     SUNNY     80  65  60 SE13      30.08R
CARLSBAD       SUNNY     82  62  50 SE8       30.04F
DRYDEN           N/A     83  71  67 VRB6      30.02R
FORT STOCKTON  SUNNY     84  66  54 S14       30.05R
GUAD PASS      MOSUNNY   78  55  44 E13       30.19R
HOBBS          SUNNY     81  64  57 SE14      30.10S
MARFA          SUNNY     79  59  50 S10       30.18R
MIDLAND AIRPK  SUNNY     85  67  53 S12G17    30.07R
MIDLAND INTL   SUNNY     85  67  54 S14       30.06R
ODESSA         NOT AVBL
PECOS          SUNNY     85  62  46 E7        30.00S
PRESIDIO       FAIR      88  60  38 MISG      30.02S
SEMINOLE       SUNNY     84  63  49 S9        30.09S
SNYDER         SUNNY     82  69  63 S12       30.06S
WINK           SUNNY     84  67  56 SE13      30.02R
$$
...OTHER STATIONS IN TEXAS...

CITY           SKY/WX    TMP DP  RH WIND       PRES   REMARKS
ABILENE        SUNNY     85  70  60 S10       30.04S
AMARILLO       SUNNY     83  60  45 SW17G23   30.09S
AUSTIN         PTSUNNY   88  73  61 S15G23    30.02S
BROWNSVILLE    MOSUNNY   90  75  61 SE23      29.99R HX 100
CORPUS CHRISTI MOSUNNY   89  77  67 S20       29.99R HX 101
DALLAS FTW     MOSUNNY   88  71  57 S12       30.03R
DEL RIO        CLOUDY    83  72  69 SE12      29.98R
EL PASO        PTSUNNY   82  55  39 VRB6      30.07R
HOUSTON INT    PTSUNNY   88  77  69 SE5       30.04R HX 100
LUBBOCK        MOSUNNY   84  64  50 SW14      30.09R
SAN ANGELO     SUNNY     87  69  54 S10       30.03R
SAN ANTONIO    PTSUNNY   88  73  61 SE13      30.03R
WACO           MOSUNNY   88  72  58 S13       30.04R
WICHITA FALLS  NOT AVBL
$$
...OTHER LOCATIONS IN NEW MEXICO...

CITY           SKY/WX    TMP DP  RH WIND       PRES   REMARKS
ALAMAGORDO     PTSUNNY   79  54  41 SW5       30.11R
ALBUQUERQUE    PTSUNNY   72  55  55 CALM      30.20R
CANNON AFB     SUNNY     81  59  46 S13       30.12S
CLOVIS         SUNNY     82  57  42 S17       30.13S
HOLLOMAN AFB   MOSUNNY   77  55  45 NE1       30.08R
ROSWELL        SUNNY     81  59  47 S15G22    30.08R
RUIDOSO        MOSUNNY   68  54  60 CALM      30.29R
SANTA FE       MOSUNNY   67  55  65 VRB5      30.24S
TRUTH OR CONSE CLOUDY    72  56  57 CALM      30.15R
TUCUMCARI      PTSUNNY   80  54  40 SW10      30.09R
$$

USA.gov is the U.S. government's official web portal to all federal, state and local government web resources and services.